Time,TemperatureF,DewpointF,PressureIn,WindDirection,WindDirectionDegrees,WindSpeedMPH,WindSpeedGustMPH,Humidity,HourlyPrecipIn,Conditions,Clouds,dailyrainin,SoftwareType,DateUTC
2015-07-30 00:12:00,68.0,25.0,-100.00,South,186,3.0,7.0,20,-99.99,,,-99.99,,2015-07-30 06:12:00,
2015-07-30 00:23:00,68.0,25.0,-100.00,South,186,3.0,7.0,20,-99.99,,,-99.99,,2015-07-30 06:23:00,
2015-07-30 00:33:00,68.0,25.0,-100.00,South,186,3.0,7.0,20,-99.99,,,-99.99,,2015-07-30 06:33:00,
2015-07-30 00:43:00,68.0,25.0,-100.00,South,186,3.0,7.0,20,-99.99,,,-99.99,,2015-07-30 06:43:00,
2015-07-30 00:51:00,66.0,29.0,-100.00,SSE,168,3.0,6.0,25,-99.99,,,-99.99,,2015-07-30 06:51:00,
2015-07-30 01:12:00,66.0,29.0,-100.00,SSE,168,3.0,6.0,25,-99.99,,,-99.99,,2015-07-30 07:12:00,
2015-07-30 01:23:00,66.0,29.0,-100.00,SSE,168,3.0,6.0,25,-99.99,,,-99.99,,2015-07-30 07:23:00,
2015-07-30 01:33:00,66.0,29.0,-100.00,SSE,168,3.0,6.0,25,-99.99,,,-99.99,,2015-07-30 07:33:00,
2015-07-30 01:43:00,66.0,29.0,-100.00,SSE,168,3.0,6.0,25,-99.99,,,-99.99,,2015-07-30 07:43:00,
2015-07-30 01:51:00,66.0,29.0,-100.00,SW,218,2.0,4.0,25,-99.99,,,-99.99,,2015-07-30 07:51:00,
2015-07-30 02:12:00,66.0,29.0,-100.00,SW,218,2.0,4.0,25,-99.99,,,-99.99,,2015-07-30 08:12:00,
2015-07-30 02:23:00,66.0,29.0,-100.00,SW,218,2.0,4.0,25,-99.99,,,-99.99,,2015-07-30 08:23:00,
2015-07-30 02:33:00,66.0,29.0,-100.00,SW,218,2.0,4.0,25,-99.99,,,-99.99,,2015-07-30 08:33:00,
2015-07-30 02:43:00,66.0,29.0,-100.00,SW,218,2.0,4.0,25,-99.99,,,-99.99,,2015-07-30 08:43:00,
2015-07-30 02:51:00,66.0,28.0,-100.00,WSW,241,1.0,4.0,24,-99.99,,,-99.99,,2015-07-30 08:51:00,
2015-07-30 03:13:00,66.0,28.0,-100.00,WSW,241,1.0,4.0,24,-99.99,,,-99.99,,2015-07-30 09:13:00,
2015-07-30 03:23:00,66.0,28.0,-100.00,WSW,241,1.0,4.0,24,-99.99,,,-99.99,,2015-07-30 09:23:00,
2015-07-30 03:33:00,66.0,28.0,-100.00,WSW,241,1.0,4.0,24,-99.99,,,-99.99,,2015-07-30 09:33:00,
2015-07-30 03:51:00,65.0,27.0,-100.00,West,261,1.0,3.0,24,-99.99,,,-99.99,,2015-07-30 09:51:00,
2015-07-30 04:13:00,65.0,27.0,-100.00,West,261,1.0,3.0,24,-99.99,,,-99.99,,2015-07-30 10:13:00,
2015-07-30 04:23:00,65.0,27.0,-100.00,West,261,1.0,3.0,24,-99.99,,,-99.99,,2015-07-30 10:23:00,
2015-07-30 04:33:00,65.0,27.0,-100.00,West,261,1.0,3.0,24,-99.99,,,-99.99,,2015-07-30 10:33:00,
2015-07-30 04:43:00,65.0,27.0,-100.00,West,261,1.0,3.0,24,-99.99,,,-99.99,,2015-07-30 10:43:00,
2015-07-30 04:51:00,61.0,27.0,-100.00,SSE,166,2.0,5.0,27,-99.99,,,-99.99,,2015-07-30 10:51:00,
2015-07-30 05:13:00,61.0,27.0,-100.00,SSE,166,2.0,5.0,27,-99.99,,,-99.99,,2015-07-30 11:13:00,
2015-07-30 05:23:00,61.0,27.0,-100.00,SSE,166,2.0,5.0,27,-99.99,,,-99.99,,2015-07-30 11:23:00,
2015-07-30 05:33:00,61.0,27.0,-100.00,SSE,166,2.0,5.0,27,-99.99,,,-99.99,,2015-07-30 11:33:00,
2015-07-30 05:43:00,61.0,27.0,-100.00,SSE,166,2.0,5.0,27,-99.99,,,-99.99,,2015-07-30 11:43:00,
2015-07-30 06:12:00,59.0,26.0,-100.00,WSW,251,2.0,4.0,28,-99.99,,,-99.99,,2015-07-30 12:12:00,
2015-07-30 06:23:00,59.0,26.0,-100.00,WSW,251,2.0,4.0,28,-99.99,,,-99.99,,2015-07-30 12:23:00,
2015-07-30 06:33:00,59.0,26.0,-100.00,WSW,251,2.0,4.0,28,-99.99,,,-99.99,,2015-07-30 12:33:00,
2015-07-30 06:51:00,57.0,28.0,-100.00,South,171,3.0,6.0,33,-99.99,,,-99.99,,2015-07-30 12:51:00,
2015-07-30 07:13:00,57.0,28.0,-100.00,South,171,3.0,6.0,33,-99.99,,,-99.99,,2015-07-30 13:13:00,
2015-07-30 07:23:00,57.0,28.0,-100.00,South,171,3.0,6.0,33,-99.99,,,-99.99,,2015-07-30 13:23:00,
2015-07-30 07:43:00,57.0,28.0,-100.00,South,171,3.0,6.0,33,-99.99,,,-99.99,,2015-07-30 13:43:00,
2015-07-30 08:12:00,64.0,29.0,-100.00,North,-9999,0.0,3.0,27,-99.99,,,-99.99,,2015-07-30 14:12:00,
2015-07-30 08:23:00,64.0,29.0,-100.00,North,-9999,0.0,3.0,27,-99.99,,,-99.99,,2015-07-30 14:23:00,
2015-07-30 08:33:00,64.0,29.0,-100.00,North,-9999,0.0,3.0,27,-99.99,,,-99.99,,2015-07-30 14:33:00,
2015-07-30 08:43:00,64.0,29.0,-100.00,North,-9999,0.0,3.0,27,-99.99,,,-99.99,,2015-07-30 14:43:00,
2015-07-30 09:12:00,68.0,36.0,-100.00,NNE,25,3.0,6.0,31,-99.99,,,-99.99,,2015-07-30 15:12:00,
2015-07-30 09:23:00,68.0,36.0,-100.00,NNE,25,3.0,6.0,31,-99.99,,,-99.99,,2015-07-30 15:23:00,
2015-07-30 09:33:00,68.0,36.0,-100.00,NNE,25,3.0,6.0,31,-99.99,,,-99.99,,2015-07-30 15:33:00,
2015-07-30 09:43:00,68.0,36.0,-100.00,NNE,25,3.0,6.0,31,-99.99,,,-99.99,,2015-07-30 15:43:00,
2015-07-30 09:51:00,74.0,32.0,-100.00,NNE,32,2.0,5.0,21,-99.99,,,-99.99,,2015-07-30 15:51:00,
2015-07-30 10:13:00,74.0,32.0,-100.00,NNE,32,2.0,-999.0,21,-99.99,,,-99.99,,2015-07-30 16:13:00,
2015-07-30 10:23:00,74.0,32.0,-100.00,NNE,32,2.0,5.0,21,-99.99,,,-99.99,,2015-07-30 16:23:00,
2015-07-30 10:35:00,74.0,32.0,-100.00,NNE,32,2.0,5.0,21,-99.99,,,-99.99,,2015-07-30 16:35:00,
2015-07-30 10:44:00,74.0,32.0,-100.00,NNE,32,2.0,5.0,21,-99.99,,,-99.99,,2015-07-30 16:44:00,
2015-07-30 10:51:00,80.0,31.0,-100.00,NNE,28,3.0,7.0,17,-99.99,,,-99.99,,2015-07-30 16:51:00,
2015-07-30 11:14:00,80.0,31.0,-100.00,NNE,28,3.0,7.0,17,-99.99,,,-99.99,,2015-07-30 17:14:00,
2015-07-30 11:24:00,80.0,31.0,-100.00,NNE,28,3.0,7.0,17,-99.99,,,-99.99,,2015-07-30 17:24:00,
2015-07-30 11:33:00,80.0,31.0,-100.00,NNE,28,3.0,7.0,17,-99.99,,,-99.99,,2015-07-30 17:33:00,
2015-07-30 11:44:00,80.0,31.0,-100.00,NNE,28,3.0,7.0,17,-99.99,,,-99.99,,2015-07-30 17:44:00,
2015-07-30 12:16:00,85.0,29.0,-100.00,NE,34,3.0,9.0,13,-99.99,,,-99.99,,2015-07-30 18:16:00,
2015-07-30 12:23:00,85.0,29.0,-100.00,NE,34,3.0,9.0,13,-99.99,,,-99.99,,2015-07-30 18:23:00,
2015-07-30 12:34:00,85.0,29.0,-100.00,NE,34,3.0,9.0,13,-99.99,,,-99.99,,2015-07-30 18:34:00,
2015-07-30 12:44:00,85.0,29.0,-100.00,NE,34,3.0,9.0,13,-99.99,,,-99.99,,2015-07-30 18:44:00,
2015-07-30 12:51:00,88.0,22.0,-100.00,NE,45,5.0,10.0,9,-99.99,,,-99.99,,2015-07-30 18:51:00,
2015-07-30 13:13:00,88.0,22.0,-100.00,NE,45,5.0,10.0,9,-99.99,,,-99.99,,2015-07-30 19:13:00,
2015-07-30 13:23:00,88.0,22.0,-100.00,NE,45,5.0,10.0,9,-99.99,,,-99.99,,2015-07-30 19:23:00,
2015-07-30 13:34:00,88.0,22.0,-100.00,NE,45,5.0,10.0,9,-99.99,,,-99.99,,2015-07-30 19:34:00,
2015-07-30 13:43:00,88.0,22.0,-100.00,NE,45,5.0,10.0,9,-99.99,,,-99.99,,2015-07-30 19:43:00,
2015-07-30 14:13:00,93.0,23.0,-100.00,NNE,18,6.0,-999.0,8,-99.99,,,-99.99,,2015-07-30 20:13:00,
2015-07-30 14:23:00,93.0,23.0,-100.00,NNE,18,6.0,25.0,8,-99.99,,,-99.99,,2015-07-30 20:23:00,